Probability
2 5 8 9 9 9 10 11 10 10 8 5 3 3 3 3 4 5 3 1 0 0 0 0 0 0 0 0 0 0 0 0 0 0 0 0 0 0 0 0 0 0 0
5 7 9 12 13 13 12 12 11 10 7 4 3 3 3 3 4 4 3 1 0 0 0 0 0 0 0 0 0 0 0 0 0 0 0 0 0 0 0 0 0 0 0
8 9 11 15 17 17 15 14 14 11 7 4 3 3 3 3 3 4 3 1 0 0 0 0 0 0 0 0 0 0 0 0 0 0 0 0 0 0 0 0 0 0 0
10 11 13 15 17 19 17 14 13 12 8 5 3 3 3 3 3 3 2 2 1 0 0 0 0 0 0 0 0 0 0 0 0 0 0 0 0 0 0 0 0 0 0
13 13 14 16 17 18 16 12 11 11 10 7 6 4 4 3 3 2 2 3 2 1 0 0 0 0 0 0 0 0 0 0 0 0 0 0 0 0 0 0 0 0 0
13 14 17 20 20 19 15 10 8 9 9 9 8 7 5 3 3 3 3 4 4 1 0 0 0 0 0 0 0 0 0 0 0 0 0 0 0 0 0 0 0 0 0
14 15 19 23 23 21 17 11 8 8 8 8 8 8 6 4 3 3 3 4 4 2 1 1 0 0 0 0 0 0 0 0 0 0 0 0 0 0 0 0 0 0 0
16 17 19 23 24 21 17 13 10 9 8 7 7 7 7 6 5 4 4 4 4 4 3 1 0 0 0 0 0 0 0 0 0 0 0 0 0 0 0 0 0 0 0
16 16 17 18 20 18 15 13 11 10 9 8 7 6 5 6 6 5 4 4 4 5 3 1 0 0 0 0 0 0 0 0 0 0 0 0 0 0 0 0 0 0 0
12 14 15 14 14 15 14 12 10 10 9 8 7 6 4 4 4 4 4 3 4 6 4 2 2 1 0 0 0 0 0 0 0 0 0 0 0 0 0 0 0 0 0
11 12 13 11 11 12 13 11 9 9 10 9 8 7 4 3 3 3 3 3 4 6 6 4 2 1 0 0 0 0 0 0 0 0 0 0 0 0 0 0 0 0 0
11 12 12 10 10 11 11 11 11 11 11 11 10 8 6 5 4 4 3 3 3 5 6 5 2 0 0 0 0 0 0 0 0 0 0 0 0 0 0 0 0 0 0
11 12 12 10 10 10 10 11 13 13 12 13 11 9 7 7 6 5 4 3 4 5 5 4 1 0 0 0 0 0 0 0 0 0 0 0 0 0 0 0 0 0 0
9 11 11 11 10 10 10 12 13 12 11 12 12 9 6 7 8 7 5 4 6 6 5 3 2 1 0 0 0 0 0 0 0 0 0 0 0 0 0 0 0 0 1
8 10 11 11 10 10 10 10 12 11 10 11 12 9 5 5 7 7 6 6 8 7 4 3 3 2 0 0 0 0 0 0 0 0 0 0 0 0 0 0 0 1 2
7 9 11 10 10 10 9 9 10 11 9 9 10 9 5 4 5 6 6 7 8 6 4 3 2 1 0 0 0 0 0 0 0 0 0 0 0 0 0 0 0 1 2
7 8 9 10 10 10 9 9 10 11 9 8 9 8 5 3 4 5 6 7 8 6 3 2 1 1 0 0 0 0 0 0 0 0 0 0 0 0 0 0 0 0 1
6 7 9 9 9 9 9 9 10 11 9 7 7 6 4 3 3 4 6 7 8 7 4 1 0 0 0 0 0 0 0 0 0 0 0 0 0 0 0 0 0 0 0
6 7 8 8 8 8 9 9 9 10 8 6 5 4 2 1 2 4 5 7 8 7 4 1 0 0 0 0 0 0 0 0 0 0 0 0 0 0 0 0 0 0 0
6 7 7 7 7 7 8 8 7 7 6 4 4 3 1 0 1 3 4 7 8 7 5 2 0 0 0 0 0 0 0 0 0 0 0 0 0 0 0 0 0 0 0
7 7 6 6 6 7 7 7 6 5 5 4 3 3 2 1 1 2 4 6 7 6 5 3 1 0 0 0 0 0 0 0 0 0 0 0 0 0 0 0 0 0 0
8 7 6 6 6 6 6 6 5 5 5 5 4 3 2 1 0 1 3 4 5 5 4 2 1 0 0 0 0 0 0 0 0 0 0 0 0 0 0 0 0 0 0
7 7 6 6 6 6 6 5 4 4 5 5 3 2 2 1 0 1 2 3 3 3 3 2 0 0 0 0 0 0 0 0 0 0 0 0 0 0 0 0 0 0 0
5 5 6 6 6 6 6 4 3 4 5 4 2 1 1 0 0 0 1 1 2 3 3 2 1 0 0 0 0 0 0 0 0 0 0 0 0 0 0 0 0 0 0
2 3 5 6 6 6 5 4 3 4 5 5 3 1 0 0 0 0 0 0 1 1 3 2 1 0 0 0 0 0 0 0 0 0 0 0 0 0 0 0 0 0 0
0 2 4 6 6 5 4 4 3 4 6 6 4 1 0 0 0 0 0 0 0 1 2 2 1 0 0 0 0 0 0 0 0 0 0 0 0 0 0 0 0 0 0
Wind_Speed
1 1 0 3 4 5 6 8 8 9 9 9 10 11 11 11 11 11 11 11 12 12 13 14 15 15 15 15 16 16 16 16 16 16 15 15 16 17 17 16 14 11 18
2 1 1 3 4 5 6 8 8 8 9 9 10 10 10 10 10 10 10 11 11 12 13 13 14 14 14 15 15 15 15 15 15 15 13 11 13 16 16 15 14 11 17
2 2 2 3 4 5 7 8 8 8 8 8 9 9 9 10 10 10 10 10 11 12 12 13 13 13 14 14 14 14 14 14 14 13 10 6 9 15 16 16 15 16 17
3 2 2 3 4 6 7 7 8 8 8 8 8 9 9 9 9 9 9 10 11 11 11 12 12 12 12 13 13 14 14 13 12 10 6 5 6 14 15 15 16 16 16
3 3 2 4 4 5 6 7 7 7 7 7 7 7 8 9 9 9 9 9 10 10 11 11 11 11 12 12 12 13 13 12 11 9 5 5 5 13 15 15 15 16 16
3 3 3 4 4 5 6 6 6 7 7 7 7 7 7 8 8 8 8 8 9 9 10 10 11 11 11 11 11 12 12 12 9 6 5 4 5 12 15 15 15 15 15
4 3 3 5 5 5 5 5 6 6 6 6 7 6 7 7 7 8 7 8 8 9 9 10 10 10 10 10 11 11 11 10 7 5 4 4 6 13 14 15 15 15 15
4 3 3 5 5 5 5 5 5 5 5 5 5 6 6 6 6 7 7 7 8 9 9 9 9 10 10 10 11 11 10 8 7 6 4 4 9 12 14 14 14 14 14
4 4 3 3 4 5 5 5 5 5 5 5 4 5 5 5 6 6 6 7 7 8 8 8 9 9 10 10 10 10 10 9 5 4 5 4 9 12 13 13 13 13 14
5 4 4 3 3 3 3 5 5 5 5 5 5 4 4 4 4 4 5 6 6 7 7 8 9 9 9 9 10 10 9 7 5 4 3 5 10 12 12 12 12 13 13
5 5 4 4 3 3 2 4 4 4 5 4 4 4 3 2 2 2 3 4 5 6 7 7 8 8 7 8 8 8 6 3 3 3 2 7 10 11 11 11 11 12 12
3 4 3 4 3 2 2 2 1 1 2 2 2 2 1 1 1 2 3 4 4 5 5 6 6 6 5 3 5 6 3 3 3 2 3 8 9 10 11 10 10 11 11
0 2 3 3 3 2 1 1 1 1 1 2 2 2 1 1 1 1 1 2 2 3 2 3 3 2 3 3 3 3 3 3 2 2 3 7 9 10 10 10 10 10 10
1 1 2 3 2 3 2 1 0 0 1 1 1 1 1 1 1 1 1 1 1 1 2 2 2 2 3 3 3 4 4 3 2 1 2 6 7 8 8 9 9 9 9
1 0 1 2 2 2 2 1 1 0 0 1 1 1 1 1 1 1 1 1 2 2 2 2 2 3 3 3 3 4 4 3 3 2 2 5 6 7 7 8 8 9 9
1 1 0 1 1 1 2 2 1 0 1 1 1 1 1 1 1 1 1 1 1 2 2 3 3 3 3 3 3 3 3 3 3 3 2 2 4 5 6 7 7 8 8
1 1 0 1 1 1 1 2 1 1 1 1 1 1 1 1 1 1 2 2 2 2 2 2 3 3 3 3 3 3 3 3 3 3 2 2 1 3 4 6 6 7 7
2 1 1 1 2 2 1 2 2 1 1 1 1 1 2 1 1 1 2 2 2 2 2 3 3 4 3 3 3 2 2 2 3 3 2 2 1 1 2 4 4 5 6
3 2 1 0 1 2 1 1 2 1 1 1 1 1 1 2 2 2 2 2 3 2 3 3 2 4 4 4 3 2 1 1 2 3 3 2 2 1 1 2 3 3 3
3 2 1 1 1 2 1 1 1 1 1 1 1 1 2 2 2 2 2 2 3 3 3 3 3 3 4 4 4 2 1 1 1 2 2 2 1 2 1 1 1 1 2
2 2 2 1 1 1 1 1 1 2 2 1 1 2 2 2 2 3 2 2 2 3 3 4 4 4 4 4 3 2 1 1 1 1 1 2 1 1 1 1 1 1 0
3 3 2 2 1 1 1 1 1 2 2 2 1 1 2 2 2 3 3 3 3 3 3 4 4 3 3 4 4 4 2 0 0 0 1 2 2 1 1 1 1 1 1
3 3 3 2 2 2 1 0 1 1 1 1 2 2 2 2 2 2 3 3 3 4 4 4 5 4 4 3 4 4 4 4 1 1 1 2 2 2 1 1 1 1 1
3 3 3 3 3 2 2 1 1 2 2 2 2 2 3 3 2 2 3 3 3 4 4 5 4 3 5 5 3 2 2 4 4 2 1 1 2 2 2 1 2 1 1
1 2 2 3 3 3 2 2 2 2 2 2 2 2 2 3 2 2 3 3 3 3 4 5 4 4 4 5 4 2 2 2 2 3 3 3 2 2 2 2 2 2 2
2 2 2 3 3 3 2 2 2 3 2 2 2 2 2 2 2 2 3 3 4 3 4 5 5 5 5 4 3 3 4 4 3 3 3 4 3 2 2 2 2 2 2
Wind_Direction
258 242 30 71 82 92 101 106 103 101 99 97 95 93 92 91 92 89 91 97 99 98 96 94 93 91 89 89 90 90 88 86 86 87 86 88 92 92 91 87 84 81 86
188 178 78 81 84 91 100 108 104 101 101 102 100 98 96 95 94 92 92 97 98 98 96 95 94 93 92 91 91 91 91 89 87 84 80 83 92 95 94 92 90 90 89
106 115 107 79 83 90 96 104 105 104 104 104 104 103 101 99 95 94 92 95 97 98 98 95 93 93 93 91 92 94 94 93 88 81 80 78 92 98 96 94 93 92 91
108 106 108 78 84 88 94 104 112 110 108 107 106 105 106 104 100 96 94 97 98 97 98 97 96 96 95 93 92 94 94 92 84 79 76 76 91 99 98 97 95 93 92
92 82 80 74 88 86 89 92 109 115 111 109 108 107 108 107 104 100 98 97 100 98 99 99 99 98 96 94 94 95 93 90 82 77 74 77 87 101 99 97 96 95 93
85 78 78 67 85 85 87 90 98 111 116 114 111 111 111 110 107 104 102 100 102 103 103 102 100 100 97 94 94 93 90 87 80 76 74 80 93 105 103 100 99 96 94
78 68 83 63 67 83 85 87 91 98 107 117 120 118 118 117 113 109 106 107 109 111 109 109 105 102 99 97 95 93 92 87 84 79 78 85 102 109 107 104 102 99 98
84 67 72 62 57 65 80 85 87 86 94 104 114 120 119 117 116 116 113 114 116 118 114 113 112 107 102 99 96 93 91 93 92 90 84 89 107 110 110 107 104 102 100
70 68 59 68 63 59 60 74 72 76 77 82 95 96 105 115 116 122 123 123 120 122 120 119 117 112 104 99 95 90 87 88 88 92 98 95 107 110 111 109 107 106 104
45 43 42 45 60 61 63 61 62 65 64 63 61 67 77 95 111 118 125 127 125 125 124 122 122 116 108 101 96 91 86 87 81 82 90 105 108 110 111 112 112 110 108
36 30 27 27 38 50 55 55 54 66 59 56 59 57 70 84 99 119 127 126 128 129 128 127 124 116 107 98 95 92 87 84 89 82 92 109 111 110 110 114 117 114 112
21 21 20 27 25 30 41 59 52 81 84 69 68 59 60 73 82 97 120 128 131 128 127 125 118 113 104 97 94 94 90 89 90 86 100 111 115 115 114 111 116 119 118
59 31 18 10 22 18 19 37 28 62 91 81 72 50 60 71 87 89 115 122 134 128 122 120 117 107 106 104 102 104 103 98 90 87 102 114 116 117 118 118 118 121 124
85 20 16 10 10 13 7 0 1 54 109 106 99 80 87 95 101 144 147 160 157 145 140 132 131 120 116 111 113 116 112 107 101 93 105 111 116 117 119 123 125 126 126
225 294 351 15 4 11 6 331 1 325 200 158 144 126 105 127 152 165 173 169 167 158 157 146 140 134 127 120 121 122 120 119 116 106 104 115 120 124 126 129 132 132 130
265 248 287 11 5 7 10 337 301 283 277 186 165 167 142 142 165 171 170 172 165 166 163 154 153 144 136 130 126 121 124 127 123 120 111 117 115 125 132 136 139 140 138
256 235 286 299 1 350 354 333 317 295 274 243 197 178 157 156 166 184 175 176 173 166 154 147 142 135 131 129 125 124 124 126 128 127 123 120 121 117 129 134 139 145 145
237 205 255 322 350 329 324 324 315 299 264 268 233 193 182 186 191 185 188 185 180 167 156 157 153 142 143 141 132 128 125 130 133 135 128 123 117 105 118 120 121 136 149
214 186 197 321 339 311 306 316 306 291 272 270 266 220 209 199 197 195 199 192 172 164 168 168 164 156 154 148 143 133 129 138 139 136 128 127 129 126 123 113 108 106 134
203 181 183 239 315 311 304 344 332 321 297 270 252 247 234 216 201 193 199 198 176 165 172 170 169 164 159 154 136 116 110 129 134 145 150 141 132 130 125 116 121 90 87
184 185 195 224 291 309 302 334 307 288 291 283 259 252 231 227 215 199 207 199 184 178 181 176 170 166 165 145 123 107 51 59 117 151 151 142 146 149 133 129 129 123 112
193 203 214 214 258 269 248 246 262 261 250 265 276 293 258 228 227 210 198 200 191 178 179 180 172 172 175 169 151 140 141 245 312 182 170 166 170 158 154 153 147 157 141
201 208 229 233 245 250 250 220 312 287 294 319 307 296 297 261 224 224 207 205 196 186 190 194 185 177 178 187 172 158 162 188 189 229 219 185 176 169 181 180 179 177 168
222 219 220 229 245 238 219 191 225 244 251 265 274 276 292 288 239 225 219 213 208 195 191 200 197 189 178 185 189 183 169 149 157 173 236 227 199 190 189 189 193 200 194
282 255 235 236 247 235 223 205 218 259 264 269 282 279 284 294 269 235 221 213 215 208 197 198 195 193 187 190 188 179 153 138 150 165 188 204 215 213 198 195 200 206 207
320 301 277 264 259 242 233 221 217 246 254 264 277 266 272 286 288 267 237 219 214 216 205 204 199 198 193 191 193 188 181 174 178 172 178 189 206 217 207 204 208 211 214